Preview of NWS' New Version of Forecast
This preview is not operational and should not be used for support decisions.

Regional Weather Roundup (RWR)

Issued by National Weather Service (NWS)

                            
000
ASUS43 KBIS 200310
RWRND 

NORTH DAKOTA REGIONAL WEATHER ROUNDUP
NATIONAL WEATHER SERVICE BISMARCK ND
1000 PM CDT WED JUN 19 2019

NOTE: "FAIR" INDICATES FEW OR NO CLOUDS BELOW 12,000 FEET WITH NO
SIGNIFICANT WEATHER AND/OR OBSTRUCTIONS TO VISIBILITY.


NDZ001>003-009>011-017-200400-
NORTHWEST NORTH DAKOTA
  
CITY           SKY/WX    TMP DP  RH WIND       PRES   REMARKS
WILLISTON      CLOUDY    62  52  69 SE12      29.68R                  
MINOT          CLEAR     62  49  62 SE13      29.71S                  
MINOT AFB      CLEAR     60  49  67 SE8       29.69F                  
$$
 
NDZ018>021-031>035-040>046-200400-
SOUTHWEST NORTH DAKOTA
  
CITY           SKY/WX    TMP DP  RH WIND       PRES   REMARKS
BISMARCK       CLOUDY    58  53  84 SE8       29.73R                  
DICKINSON      CLOUDY    57  53  86 E13       29.66F                  
GARRISON         N/A     57  52  83 SE14      29.71S                  
HETTINGER ARPT CLOUDY    58  55  90 E13       29.67F                  
$$
 
NDZ004>008-012>016-024-026-027-054-200400-
NORTHEAST NORTH DAKOTA
  
CITY           SKY/WX    TMP DP  RH WIND       PRES   REMARKS
GRAND FORKS    CLOUDY    63  55  75 S6        29.77R                  
DEVILS LAKE    MOCLDY    61  50  67 S6        29.78S                  
$$
 
NDZ022-023-025-028>030-036>039-047>053-200400-
SOUTHEAST NORTH DAKOTA
  
CITY           SKY/WX    TMP DP  RH WIND       PRES   REMARKS
FARGO          CLOUDY    64  53  67 NW10      29.77R                  
JAMESTOWN      CLOUDY    56  54  93 E8        29.75F                  
$$